{"data":{"norad_id":52684,"intl_designator":"2022-053AE","name":"STARLINK-4014","alt_names":[],"object_type":"PAYLOAD","status":"ACTIVE","operator":null,"country":"US","launch_date":"2022-05-18","launch_site_code":"AFETR","launch_vehicle":null,"mission":null,"orbit_class":"UNKNOWN","rcs_meters":null,"size_class":null,"mass_kg":null,"dimensions":null,"purposes":["comms"],"wikipedia_slug":null,"has_3d_model":false,"image_url":null,"decayed_at":null,"tle_current":{"epoch":"2026-05-25T01:25:48.376416Z","epoch_age_seconds":63139,"freshness":"FRESH","line1":"1 52684U 22053AE  26145.05958769 -.00000723  00000+0 -27323-4 0  9998","line2":"2 52684  53.2137 161.2834 0001136  74.6834 285.4284 15.08837637222665","mean_motion":15.08837637,"eccentricity":0.0001136,"inclination_deg":53.2137,"raan_deg":161.2834,"arg_perigee_deg":74.6834,"mean_anomaly_deg":285.4284,"bstar":-2.7323e-5,"rev_number":22266,"period_min":95.437704143113,"perigee_km":538.96473968651,"apogee_km":540.53648375189,"semimajor_km":6917.8876117192,"source":"CELESTRAK","updated_at":"2026-05-25T13:38:17.235102Z"}}}